This is the latest recevied weather packets stored in our database for station/object MIDVIL-WX. If no packets are shown the sender has not sent any weather packets the latest 10 day(s).
| Time | Temp. | Humidity | Pressure | Rain* | Wind** | Luminosity | Snow |
|---|---|---|---|---|---|---|---|
| 1777647653 | 6.67° C | 56% | 989.4 hPa | 0 mm | - | - | - |
| 1777646725 | 6.67° C | 61% | 988.7 hPa | 0 mm | - | - | - |
| 1777645844 | 6.67° C | 56% | 989.3 hPa | 0 mm | - | - | - |
| 1777644925 | 6.11° C | 56% | 989.3 hPa | 0 mm | - | - | - |
| 1777644057 | 6.11° C | 56% | 989.3 hPa | 0 mm | - | - | - |
| 1777643125 | 5.56° C | 62% | 988.7 hPa | 0 mm | - | - | - |
| 1777642242 | 5.56° C | 62% | 988.7 hPa | 0 mm | - | - | - |
| 1777641325 | 5° C | 62% | 988.6 hPa | 0 mm | - | - | - |
| 1777640452 | 4.44° C | 62% | 988.6 hPa | 0 mm | - | - | - |
| 1777639526 | 3.89° C | 68% | 988.2 hPa | 0 mm | - | - | - |
| 1777638642 | 3.89° C | 67% | 988.3 hPa | 0 mm | - | - | - |
| 1777637725 | 3.89° C | 67% | 988.3 hPa | 0 mm | - | - | - |
| 1777636854 | 3.89° C | 67% | 988.3 hPa | 0 mm | - | - | - |
| 1777635925 | 3.89° C | 80% | 987.6 hPa | 0 mm | - | - | - |
| 1777635042 | 3.33° C | 82% | 987.6 hPa | 0 mm | - | - | - |
| 1777634125 | 3.89° C | 82% | 987.6 hPa | 0 mm | - | - | - |
| 1777633252 | 3.33° C | 82% | 987.6 hPa | 0 mm | - | - | - |
| 1777632324 | 3.33° C | 85% | 987.4 hPa | 0 mm | - | - | - |
| 1777631443 | 3.33° C | 82% | 987.9 hPa | 0 mm | - | - | - |
| 1777630525 | 3.33° C | 82% | 987.9 hPa | 0 mm | - | - | - |
| 1777629654 | 3.33° C | 82% | 987.9 hPa | 0 mm | - | - | - |
| 1777628726 | 3.33° C | 89% | 988.4 hPa | 0 mm | - | - | - |
| 1777627841 | 3.33° C | 87% | 988.2 hPa | 0 mm | - | - | - |
| 1777626925 | 2.78° C | 87% | 988.2 hPa | 0 mm | - | - | - |
| 1777626050 | 2.78° C | 87% | 988.2 hPa | 0 mm | - | - | - |
* Rain latest hour (hover to see other rain measurements)
** Current wind speed in m/s (hover to see current wind gust speed)